Regional Weather Roundup
Issued by NWS Charleston, SC

Current Version | Previous Version | Graphics & Text | Print | Product List | Glossary On
Versions: 1 2 3 4 5 6 7 8 9 10 11 12 13 14 15 16 17 18 19 20 21 22 23 24 25 26 27 28 29 30 31 32 33 34 35 36 37 38 39 40 41 42 43 44 45 46 47 48 49 50
000
ASUS42 KCHS 271327
RWRCHS

Regional Weather Roundup
National Weather Service Charleston SC
900 AM EDT SUN MAY 27 2018

NOTE: "fair" indicates few or no clouds below 12,000 feet with no
significant weather and/or obstructions to visibility.

Not all stations are quality controlled. Use data with caution,
especially dewpoint observations.

SCZ027-030-031-034>040-042>050-271400-
...Southeast South Carolina...

CITY           SKY/WX    TMP DP  RH WIND       PRES   REMARKS
N Charleston   CLOUDY    78  72  81 SE7       30.00S
Waterfront Prk   N/A     79  73  82 E8        29.84S
Mount Pleasant FAIR      79  72  78 E5        30.01S
Johns Island   FAIR      79  73  83 E8        30.00S
Pinopolis        N/A     75  73  94 CALM      29.94R
Moncks Corner  FAIR      75  72  88 SE5       30.01S HAZE
Summerville    FAIR      77  72  83 E3        30.02S
Beaufort MCAS  FAIR      80  73  79 E8        29.99R
Beaufort Arpt  FAIR      79  70  73 E8        29.98S
Hilton Head Is MOSUNNY   81  72  74 NE12      29.99R
Walterboro     FAIR      73  72  94 E6        30.01S
Allendale      FAIR      75  73  94 CALM      29.99S

...Southern Midlands and Pee Dee...

CITY           SKY/WX    TMP DP  RH WIND       PRES   REMARKS
Georgetown     PTSUNNY   77  77 100 SE9       30.04R
Kingstree      PTSUNNY   77  73  88 SE5       30.02S
Orangeburg     FAIR      75  70  84 CALM      30.01R
Barnwell       FAIR      75  72  88 CALM      30.01R
Aiken          CLOUDY    72  72 100 SE5       30.05R
Manning        FAIR      73  68  83 SE5       30.02S
Columbia       PTSUNNY   73  72  96 SE3       30.01R
Sumter         PTSUNNY   75  70  83 E5        30.00S
Florence       FAIR      74  71  91 S5        30.03R
Myrtle Beach   FAIR      79  71  76 S10       30.04R
N Myrtle Beach FAIR      79  72  79 S8        30.03R

$$

GAZ063-065-086>088-099>101-113>116-118-119-134>141-150-271400-
...Southeast Georgia...

CITY           SKY/WX    TMP DP  RH WIND       PRES   REMARKS
Savannah Arpt  PTSUNNY   79  72  79 E10       29.97S
Hunter AAF     FAIR      79  73  81 E10       29.94S
Fort Stewart   FAIR      76  72  87 NE6       29.94R
Statesboro     FAIR      76  71  86 E6        29.98S
Sylvania       FAIR      77  73  88 E6        30.00R
Claxton        FAIR      79  74  85 NE6       29.97S

...CSRA, Central and far Southeast Georgia...

CITY           SKY/WX    TMP DP  RH WIND       PRES   REMARKS
Thomson        PTSUNNY   75  70  84 SW3       30.05R
Augusta-Bush   PTSUNNY   72  71  97 SE3       29.99R
Augusta-Daniel CLOUDY    73  72  96 E3        30.01R
Swainsboro     FAIR      73  72  94 E6        29.99S
Vidalia        FAIR      75  70  83 E8        29.97R
Eastman        FAIR      75  66  73 E5        29.99R
Hazlehurst       N/A     77  70  78 E5        29.94S
Alma           PTSUNNY   76  70  82 VRB6      29.94R
Waycross       DRIZZLE   73  71  91 E9        29.94S
Jesup          CLOUDY    77  71  81 CALM      29.95S
Baxley         CLOUDY    73  73 100 E6        29.95R
Brunswick      LGT RAIN  73  70  88 E8        29.95S
Saint Simons   LGT RAIN  74  67  78 E14       29.94R

$$

SCZ027-028-034-036>038-045-046-048>050-GAZ119-141-271400-
...Lake and Supplemental Coastal Observations...

STATION/POSITION TIME  TEMP    WIND        PRES    WAVE   SWELL
                       AIR SEA DIR/SP/G            HT/PER HT/PER/DIR
                 (UTC) (F)     (DEG/KT/KT) (MB)    (FT/S) (FT/S/D)
Winyah Bay       1245   77     140/  6     1017.0R
Lake Murray      1220   74     160/  4/  6 1015.2
ACE Basin NERRS  1245   78      70/  2     1016.0R
Fort Pulaski     1300   78 80  100/ 13/ 16 1015.4
Sapelo Island    1300   77      90/  6     1014.0

$$

ANZ835-935-AMZ111-154-330-350-352-354-370-450-454-472-271400-
...C-MAN and Buoy Observations...

STATION/POSITION TIME  TEMP    WIND        PRES    WAVE   SWELL
                       AIR SEA DIR/SP/G            HT/PER HT/PER/DIR
                 (UTC) (F)     (DEG/KT/KT) (MB)    (FT/S) (FT/S/D)
Buoy 41004       1300      76   90/  4/  6 1016.3
Buoy 41008       1250   74 77  130/ 14/ 17 1013.8R   3/ 6   2/110/ 7
Folly Beach CMAN 1300   78      90/ 10/ 13 1016.6R
Capers Nearshore 1308   78 78  100/ 10/ 12 1017.1R
Fripp Nearshore  1308   78 79  100/ 12/ 16 1015.0R


STATION/POSITION TIME  TEMP    WIND        PRES    WAVE   SWELL
                       AIR SEA DIR/SP/G            HT/PER HT/PER/DIR
                 (UTC) (F)     (DEG/KT/KT) (MB)    (FT/S) (FT/S/D)
5E St. Marys GA  1300      78                N/A     3/ 6
Frying Pan Buoy  1300   78 77  130/  6/  8 1017.3
Buoy 41025       1310   78 78  200/ 12/ 16 1018.4
Cape Lookout NC  1300          200/  6/  8 1018.1R
Buoy 41002       1300      78  150/ 16/ 19 1018.2
Buoy 41010       1300   78 78  120/ 21/ 29 1013.2
St Augustine FL  1300   76 77   90/ 16/ 17 1012.0R


$$




USA.gov is the U.S. government's official web portal to all federal, state and local government web resources and services.